EDT,Max TemperatureF,Mean TemperatureF,Min TemperatureF,Max Dew PointF,MeanDew PointF,Min DewpointF,Max Humidity, Mean Humidity, Min Humidity, Max Sea Level PressureIn, Mean Sea Level PressureIn, Min Sea Level PressureIn, Max VisibilityMiles, Mean VisibilityMiles, Min VisibilityMiles, Max Wind SpeedMPH, Mean Wind SpeedMPH, Max Gust SpeedMPH,PrecipitationIn, CloudCover, Events, WindDirDegrees
2013-8-1,75,70,64,68,65,63,94,82,73,30.02,29.98,29.93,10,10,5,16,6,,0.00,5,Rain,194
2013-8-2,78,74,69,70,67,64,94,77,65,29.98,29.90,29.85,10,10,10,14,10,,0.00,2,,271
2013-8-3,75,72,69,68,66,64,88,82,73,29.91,29.89,29.85,10,10,10,12,8,,0.00,4,Rain,250
2013-8-4,78,72,66,63,59,57,88,62,47,29.93,29.87,29.83,10,10,10,14,7,,0.00,1,,307
2013-8-5,75,68,60,57,53,48,82,62,41,30.08,30.03,30.00,10,10,10,14,6,,0.00,0,,309
2013-8-6,73,65,57,64,60,55,94,72,57,30.16,30.14,30.11,10,10,10,12,6,,0.00,0,,170
2013-8-7,73,65,57,66,63,55,94,80,65,30.20,30.17,30.14,10,10,10,12,5,,0.00,3,,161
2013-8-8,77,73,69,72,70,68,94,91,78,30.11,30.09,30.07,10,10,10,18,14,23,0.00,6,,225
2013-8-9,75,74,73,73,72,72,100,94,89,30.00,29.89,29.84,10,7,4,18,14,22,0.00,7,Rain,215
2013-8-10,80,76,69,66,64,61,83,69,51,30.03,29.98,29.95,10,10,10,12,8,,0.00,1,,290
2013-8-11,75,70,66,64,59,54,83,65,50,30.12,30.09,30.06,10,10,10,10,6,,0.00,2,,240
2013-8-12,75,72,68,70,68,64,94,89,78,30.03,30.00,29.96,10,9,7,7,2,,0.00,5,,260
2013-8-13,71,68,66,70,69,66,100,97,94,29.88,29.80,29.71,7,3,1,6,0,,0.00,8,Rain,60
2013-8-14,69,66,64,55,54,54,73,62,56,29.92,29.85,29.81,10,10,10,14,13,,0.00,0,,311
2013-8-15,71,66,60,59,54,46,82,61,41,30.15,30.12,30.09,10,10,10,17,6,,0.00,2,,243
2013-8-16,73,68,62,63,59,54,94,72,50,30.22,30.19,30.17,10,10,10,12,4,,0.00,1,,210
2013-8-17,78,71,60,63,59,54,88,65,42,30.29,30.27,30.25,10,10,10,7,3,,0.00,0,,205
2013-8-18,73,66,59,63,60,57,100,84,65,30.28,30.19,30.14,10,9,5,6,2,,0.00,6,,70
2013-8-19,77,70,64,68,64,59,88,75,54,30.11,30.06,30.02,10,10,8,12,7,,0.00,5,Rain,258
2013-8-20,80,73,66,66,64,61,94,69,51,30.14,30.11,30.08,10,10,10,12,4,,0.00,0,,275
2013-8-21,84,74,64,72,67,63,100,83,51,30.18,30.15,30.10,10,7,0,14,3,,0.00,1,Fog,230
2013-8-22,77,74,71,72,71,70,100,92,83,30.05,30.00,29.92,10,8,6,12,7,,0.00,6,,241
2013-8-23,78,71,64,68,63,61,88,74,54,30.10,30.00,29.92,10,10,8,12,7,,0.00,1,,17
2013-8-24,71,66,62,61,57,52,77,65,50,30.31,30.29,30.24,10,10,10,9,6,,0.00,0,,76
2013-8-25,77,65,53,64,60,52,94,68,47,30.39,30.33,30.26,10,10,10,15,6,,0.00,0,,235
2013-8-26,73,71,69,70,66,63,100,82,73,30.18,30.05,29.95,10,10,5,17,13,24,0.00,7,Rain,241
2013-8-27,77,73,68,72,69,66,100,91,78,29.92,29.86,29.83,10,8,3,12,6,,0.00,4,,26
2013-8-28,78,71,64,72,70,63,100,92,78,29.93,29.90,29.89,10,7,0,9,3,,0.00,3,Fog,175
2013-8-29,71,68,66,66,65,63,100,88,78,30.05,30.02,29.99,10,8,4,8,4,,0.00,6,,57
2013-8-30,75,68,60,70,65,59,94,87,83,30.03,29.98,29.91,10,9,6,12,5,,0.00,6,,235
2013-8-31,75,73,71,72,71,70,94,92,88,29.91,29.88,29.85,9,8,5,16,13,24,0.00,6,,234